Weather History for Jaffrey, NH

Change the Weather History Date:

Friday, September 6, 2013

  Actual Average Record
Temperature  
Mean Temperature 50 °F -  
Max Temperature 66 °F 72 °F 86 °F (1998)
Min Temperature 37 °F 51 °F 35 °F (2000)
Degree Days  
Heating Degree Days 14    
Moisture  
Dew Point 39 °F    
Average Humidity 78    
Maximum Humidity 100    
Minimum Humidity 34    
Precipitation  
Precipitation 0.00 in - - ()
Sea Level Pressure  
Sea Level Pressure 30.22 in    
Wind  
Wind Speed 1 mph (SW)    
Max Wind Speed 8 mph    
Max Gust Speed -    
Visibility 7 miles    
Events Fog    
Averages and records for this station are not official NWS values.
T = Trace of Precipitation, MM = Missing Value Source: NWS Daily Summary

Daily Weather History Graph

Daily Weather History Graph

Search for Another Location

Airport:

Trip Planner

Search our weather history database for the weather conditions in past years. The results will help you decide how hot, cold, wet, or windy it might be!

Date:

Astronomy

Sep. 06, 2013 Rise Set
Actual Time 6:18 AM EDT 7:13 PM EDT
Civil Twilight 5:49 AM EDT 7:42 PM EDT
Nautical Twilight 5:15 AM EDT 8:16 PM EDT
Astronomical Twilight 4:39 AM EDT 8:52 PM EDT
Moon 7:30 AM EDT (9/6) 7:32 PM EDT (9/6)
Length of Visible Light 13h 52m
Length of Day
12h 55m
New Moon, 1% of the Moon is Illuminated
Sep 6
New Moon
Sep 12
First Quarter
Sep 19
Full
Sep 26
Last Quarter
Oct 4
New

Hourly Weather History & Observations

Time (EDT) Temp. Dew Point Humidity Pressure Visibility Wind Dir Wind Speed Gust Speed Precip Events Conditions
12:52 AM 44.1 °F 41.0 °F 89% 30.21 in 10.0 mi Calm Calm - N/A   Clear
1:52 AM 42.1 °F 39.0 °F 89% 30.21 in 10.0 mi Calm Calm - N/A   Clear
2:52 AM 41.0 °F 39.0 °F 93% 30.22 in 10.0 mi Calm Calm - N/A   Scattered Clouds
3:03 AM 41.0 °F 39.2 °F 93% 30.20 in 10.0 mi Calm Calm - N/A   Mostly Cloudy
3:13 AM 41.0 °F 39.2 °F 93% 30.19 in 10.0 mi Calm Calm - N/A   Scattered Clouds
3:52 AM 39.9 °F 37.9 °F 93% 30.23 in 10.0 mi Calm Calm - N/A   Partly Cloudy
4:52 AM 39.0 °F 37.0 °F 93% 30.25 in 10.0 mi Calm Calm - N/A   Clear
5:48 AM 39.2 °F 37.4 °F 93% 30.22 in 10.0 mi Calm Calm - N/A   Partly Cloudy
5:52 AM 39.0 °F 37.0 °F 93% 30.25 in 10.0 mi Calm Calm - N/A   Partly Cloudy
6:34 AM 39.2 °F 37.4 °F 93% 30.24 in 4.0 mi Calm Calm - N/A   Mostly Cloudy
6:37 AM 39.2 °F 37.4 °F 93% 30.24 in 1.0 mi Calm Calm - N/A   Mist
6:44 AM 39.2 °F 37.4 °F 93% 30.24 in 0.2 mi Calm Calm - N/A Fog Fog
6:52 AM 39.0 °F 37.0 °F 93% 30.27 in 0.2 mi Calm Calm - N/A Fog Fog
6:59 AM 39.2 °F 37.4 °F 93% 30.24 in 1.5 mi Calm Calm - N/A   Mist
7:02 AM 39.2 °F 37.4 °F 93% 30.24 in 3.0 mi Calm Calm - N/A   Mist
7:06 AM 39.2 °F 37.4 °F 93% 30.24 in 1.8 mi Calm Calm - N/A   Mist
7:12 AM 37.4 °F 37.4 °F 100% 30.24 in 1.0 mi Calm Calm - N/A   Mist
7:20 AM 39.2 °F 37.4 °F 93% 30.24 in 0.8 mi Calm Calm - N/A   Mist
7:30 AM 39.2 °F 37.4 °F 93% 30.24 in 1.0 mi Calm Calm - N/A   Clear
7:34 AM 39.2 °F 39.2 °F 100% 30.24 in 1.5 mi Calm Calm - N/A   Clear
7:41 AM 41.0 °F 39.2 °F 93% 30.25 in 3.0 mi Calm Calm - N/A   Clear
7:52 AM 44.1 °F 41.0 °F 89% 30.27 in 9.0 mi Calm Calm - N/A   Clear
8:52 AM 50.0 °F 43.0 °F 77% 30.28 in 10.0 mi Calm Calm - N/A   Clear
9:52 AM 55.9 °F 39.0 °F 53% 30.28 in 10.0 mi Calm Calm - N/A   Clear
10:52 AM 57.9 °F 34.0 °F 41% 30.27 in 10.0 mi Calm Calm - N/A   Clear
11:52 AM 61.0 °F 36.0 °F 39% 30.26 in 10.0 mi Variable 5.8 mph - N/A   Clear
12:52 PM 61.0 °F 36.0 °F 39% 30.25 in 10.0 mi Variable 4.6 mph - N/A   Clear
1:52 PM 62.1 °F 35.1 °F 37% 30.23 in 10.0 mi West 8.1 mph - N/A   Clear
2:52 PM 64.0 °F 35.1 °F 34% 30.21 in 10.0 mi Variable 3.5 mph - N/A   Clear
3:52 PM 64.0 °F 35.1 °F 34% 30.19 in 10.0 mi Variable 5.8 mph - N/A   Clear
4:52 PM 64.9 °F 37.9 °F 37% 30.17 in 10.0 mi West 4.6 mph - N/A   Clear
5:52 PM 64.0 °F 39.9 °F 41% 30.17 in 10.0 mi West 5.8 mph - N/A   Clear
6:52 PM 61.0 °F 44.1 °F 54% 30.17 in 10.0 mi Calm Calm - N/A   Clear
7:52 PM 53.1 °F 48.0 °F 83% 30.17 in 10.0 mi Calm Calm - N/A   Clear
8:52 PM 51.1 °F 46.9 °F 86% 30.16 in 10.0 mi South 4.6 mph - N/A   Clear
9:52 PM 51.1 °F 46.0 °F 83% 30.15 in 10.0 mi South 3.5 mph - N/A   Clear
10:52 PM 50.0 °F 46.0 °F 86% 30.14 in 10.0 mi Calm Calm - N/A   Clear
11:52 PM 48.9 °F 45.0 °F 86% 30.13 in 10.0 mi South 3.5 mph - N/A   Clear